QPF
0.08 0.19 0.28 0.23 0.24 0.24 0.26 0.24 0.22 0.20 0.18 0.15 0.10 0.08 0.06 0.06 0.06 0.06 0.04 0.04 0.03 0.01 0.01 0.01 0.00 0.00 0.00 0.00 0.00 0.00 0.00 0.00 0.00 0.00 0.00 0.00 0.00 0.01 0.01 0.01 0.01 0.01 0.02
0.06 0.10 0.19 0.21 0.22 0.22 0.27 0.25 0.26 0.22 0.17 0.13 0.11 0.12 0.10 0.07 0.06 0.04 0.03 0.03 0.02 0.01 0.01 0.00 0.00 0.00 0.00 0.00 0.00 0.00 0.00 0.00 0.00 0.00 0.00 0.00 0.00 0.00 0.00 0.01 0.01 0.01 0.01
0.05 0.07 0.08 0.13 0.17 0.20 0.19 0.21 0.25 0.25 0.19 0.15 0.14 0.11 0.07 0.04 0.03 0.02 0.01 0.01 0.01 0.01 0.01 0.00 0.00 0.00 0.00 0.00 0.00 0.00 0.00 0.00 0.00 0.00 0.00 0.00 0.00 0.00 0.00 0.00 0.00 0.00 0.00
0.03 0.04 0.03 0.06 0.12 0.14 0.14 0.17 0.20 0.23 0.22 0.15 0.11 0.06 0.03 0.03 0.02 0.02 0.01 0.01 0.01 0.01 0.01 0.01 0.00 0.00 0.00 0.00 0.00 0.00 0.00 0.00 0.00 0.00 0.00 0.00 0.00 0.00 0.00 0.00 0.00 0.00 0.00
0.03 0.03 0.02 0.03 0.05 0.07 0.08 0.14 0.17 0.18 0.18 0.14 0.10 0.06 0.04 0.03 0.02 0.01 0.01 0.01 0.00 0.00 0.00 0.00 0.00 0.00 0.00 0.00 0.00 0.00 0.00 0.00 0.00 0.00 0.00 0.00 0.00 0.00 0.00 0.00 0.00 0.00 0.00
0.03 0.04 0.04 0.05 0.04 0.05 0.07 0.11 0.13 0.12 0.13 0.11 0.08 0.06 0.04 0.02 0.01 0.02 0.02 0.01 0.01 0.00 0.00 0.00 0.00 0.00 0.00 0.00 0.00 0.00 0.00 0.00 0.00 0.00 0.00 0.00 0.00 0.00 0.00 0.00 0.00 0.00 0.00
0.02 0.03 0.03 0.03 0.04 0.05 0.05 0.08 0.09 0.08 0.08 0.08 0.06 0.05 0.03 0.02 0.02 0.02 0.01 0.01 0.00 0.00 0.00 0.00 0.00 0.00 0.00 0.00 0.00 0.00 0.00 0.00 0.00 0.00 0.00 0.00 0.00 0.00 0.00 0.00 0.00 0.00 0.00
0.01 0.01 0.01 0.01 0.02 0.04 0.04 0.04 0.06 0.06 0.06 0.06 0.06 0.05 0.03 0.02 0.02 0.01 0.01 0.00 0.00 0.00 0.00 0.00 0.00 0.00 0.00 0.00 0.00 0.00 0.00 0.00 0.00 0.00 0.00 0.00 0.00 0.00 0.00 0.00 0.00 0.00 0.00
0.01 0.01 0.01 0.01 0.01 0.02 0.02 0.02 0.03 0.04 0.04 0.05 0.05 0.04 0.02 0.02 0.02 0.02 0.02 0.01 0.01 0.00 0.00 0.00 0.00 0.00 0.00 0.00 0.00 0.00 0.00 0.00 0.00 0.00 0.00 0.00 0.00 0.00 0.00 0.00 0.00 0.00 0.00
0.01 0.01 0.01 0.00 0.01 0.01 0.01 0.02 0.02 0.01 0.04 0.04 0.03 0.03 0.03 0.03 0.02 0.02 0.02 0.01 0.01 0.01 0.01 0.01 0.00 0.00 0.00 0.00 0.00 0.00 0.00 0.00 0.00 0.00 0.00 0.00 0.00 0.00 0.00 0.00 0.00 0.00 0.00
0.01 0.01 0.01 0.00 0.00 0.01 0.01 0.02 0.01 0.01 0.02 0.03 0.03 0.02 0.02 0.02 0.02 0.01 0.02 0.02 0.01 0.01 0.01 0.01 0.01 0.00 0.01 0.01 0.01 0.00 0.01 0.01 0.01 0.01 0.01 0.01 0.00 0.00 0.00 0.00 0.00 0.00 0.00
0.02 0.02 0.01 0.00 0.00 0.01 0.01 0.01 0.01 0.01 0.01 0.02 0.02 0.02 0.02 0.02 0.02 0.02 0.03 0.02 0.01 0.01 0.01 0.00 0.01 0.01 0.01 0.01 0.01 0.00 0.00 0.00 0.01 0.01 0.01 0.00 0.00 0.00 0.01 0.01 0.00 0.00 0.00
0.01 0.01 0.01 0.00 0.01 0.01 0.01 0.01 0.01 0.01 0.01 0.03 0.03 0.02 0.03 0.02 0.01 0.01 0.01 0.01 0.01 0.01 0.00 0.00 0.01 0.01 0.01 0.01 0.01 0.01 0.00 0.00 0.00 0.00 0.00 0.01 0.00 0.00 0.00 0.00 0.00 0.00 0.00
0.01 0.01 0.01 0.02 0.02 0.02 0.02 0.02 0.03 0.03 0.03 0.03 0.03 0.03 0.03 0.03 0.02 0.01 0.02 0.02 0.02 0.02 0.02 0.02 0.01 0.01 0.01 0.01 0.01 0.00 0.00 0.00 0.00 0.00 0.00 0.00 0.00 0.00 0.00 0.00 0.00 0.00 0.00
0.01 0.01 0.02 0.01 0.02 0.02 0.01 0.02 0.03 0.04 0.04 0.04 0.04 0.04 0.04 0.03 0.02 0.02 0.03 0.03 0.03 0.03 0.03 0.03 0.02 0.02 0.01 0.01 0.01 0.00 0.00 0.00 0.00 0.00 0.00 0.00 0.00 0.00 0.00 0.00 0.00 0.00 0.00
0.01 0.02 0.03 0.03 0.03 0.03 0.03 0.03 0.04 0.06 0.07 0.06 0.06 0.05 0.04 0.04 0.03 0.03 0.04 0.04 0.05 0.04 0.04 0.04 0.03 0.03 0.02 0.02 0.02 0.01 0.01 0.01 0.01 0.01 0.01 0.01 0.01 0.01 0.01 0.01 0.01 0.01 0.01
0.02 0.02 0.03 0.04 0.03 0.03 0.04 0.06 0.08 0.09 0.09 0.08 0.10 0.10 0.07 0.07 0.07 0.06 0.05 0.07 0.10 0.09 0.06 0.06 0.05 0.05 0.04 0.04 0.03 0.03 0.02 0.02 0.01 0.01 0.01 0.01 0.01 0.02 0.02 0.02 0.02 0.01 0.01
0.02 0.03 0.04 0.05 0.04 0.04 0.06 0.07 0.10 0.09 0.09 0.11 0.12 0.12 0.10 0.10 0.11 0.12 0.10 0.10 0.11 0.11 0.10 0.09 0.08 0.08 0.08 0.08 0.07 0.07 0.06 0.04 0.03 0.02 0.01 0.01 0.01 0.01 0.01 0.01 0.02 0.01 0.02
0.04 0.04 0.04 0.04 0.04 0.04 0.06 0.08 0.10 0.11 0.13 0.13 0.11 0.10 0.09 0.09 0.09 0.09 0.08 0.08 0.10 0.11 0.11 0.11 0.11 0.12 0.14 0.16 0.16 0.15 0.12 0.09 0.07 0.05 0.04 0.02 0.02 0.02 0.02 0.01 0.01 0.00 0.00
0.04 0.04 0.04 0.04 0.04 0.04 0.05 0.08 0.10 0.12 0.13 0.13 0.11 0.11 0.10 0.09 0.07 0.05 0.05 0.07 0.08 0.08 0.08 0.08 0.12 0.14 0.15 0.17 0.16 0.16 0.14 0.13 0.13 0.11 0.08 0.05 0.04 0.04 0.04 0.03 0.02 0.01 0.01
0.03 0.03 0.03 0.04 0.04 0.04 0.04 0.06 0.08 0.10 0.11 0.12 0.13 0.13 0.12 0.11 0.09 0.08 0.08 0.09 0.09 0.10 0.09 0.09 0.12 0.12 0.12 0.13 0.13 0.13 0.12 0.11 0.11 0.11 0.10 0.08 0.07 0.06 0.05 0.04 0.03 0.02 0.02
0.02 0.02 0.02 0.02 0.03 0.04 0.04 0.05 0.06 0.07 0.07 0.08 0.11 0.14 0.15 0.13 0.11 0.11 0.12 0.13 0.14 0.14 0.13 0.12 0.12 0.12 0.12 0.11 0.10 0.09 0.08 0.07 0.06 0.06 0.07 0.09 0.11 0.10 0.09 0.07 0.05 0.04 0.02
0.02 0.01 0.02 0.02 0.01 0.02 0.03 0.05 0.05 0.05 0.05 0.07 0.08 0.11 0.12 0.11 0.10 0.12 0.14 0.17 0.18 0.17 0.16 0.14 0.13 0.11 0.09 0.08 0.08 0.08 0.07 0.07 0.06 0.06 0.08 0.09 0.11 0.10 0.09 0.08 0.07 0.05 0.03
0.02 0.02 0.02 0.01 0.01 0.01 0.01 0.02 0.01 0.01 0.02 0.02 0.03 0.04 0.05 0.05 0.05 0.05 0.07 0.10 0.11 0.13 0.14 0.14 0.12 0.11 0.11 0.09 0.09 0.08 0.08 0.08 0.08 0.07 0.07 0.08 0.08 0.07 0.07 0.07 0.06 0.05 0.05
0.03 0.02 0.01 0.01 0.01 0.01 0.00 0.00 0.00 0.00 0.00 0.01 0.02 0.02 0.04 0.05 0.06 0.07 0.07 0.07 0.07 0.08 0.10 0.11 0.10 0.10 0.10 0.11 0.11 0.10 0.09 0.08 0.07 0.07 0.07 0.08 0.07 0.06 0.05 0.05 0.04 0.04 0.04
0.03 0.02 0.02 0.01 0.01 0.00 0.00 0.00 0.00 0.00 0.00 0.01 0.02 0.04 0.06 0.08 0.08 0.07 0.07 0.06 0.05 0.05 0.05 0.05 0.05 0.06 0.05 0.06 0.06 0.06 0.06 0.06 0.06 0.06 0.06 0.06 0.06 0.06 0.05 0.04 0.04 0.03 0.03
MSLP
1009.25 1009.42 1009.59 1009.78 1009.99 1010.26 1010.60 1011.05 1011.60 1012.24 1012.94 1013.67 1014.38 1015.02 1015.59 1016.07 1016.46 1016.79 1017.08 1017.35 1017.63 1017.90 1018.18 1018.45 1018.71 1018.94 1019.14 1019.32 1019.49 1019.66 1019.84 1020.04 1020.23 1020.42 1020.59 1020.71 1020.77 1020.76 1020.70 1020.59 1020.46 1020.34 1020.25
1009.66 1009.74 1009.81 1009.87 1009.95 1010.10 1010.35 1010.75 1011.30 1012.00 1012.79 1013.63 1014.46 1015.21 1015.85 1016.35 1016.74 1017.03 1017.27 1017.50 1017.73 1017.99 1018.27 1018.57 1018.86 1019.12 1019.35 1019.54 1019.71 1019.87 1020.03 1020.21 1020.41 1020.61 1020.81 1020.97 1021.07 1021.11 1021.07 1020.98 1020.84 1020.70 1020.57
1009.84 1009.88 1009.88 1009.86 1009.85 1009.91 1010.10 1010.45 1011.02 1011.76 1012.63 1013.57 1014.50 1015.35 1016.05 1016.60 1016.98 1017.25 1017.45 1017.63 1017.83 1018.06 1018.35 1018.66 1018.97 1019.25 1019.50 1019.70 1019.86 1020.00 1020.14 1020.31 1020.51 1020.73 1020.95 1021.16 1021.32 1021.41 1021.42 1021.36 1021.24 1021.09 1020.94
1009.84 1009.87 1009.86 1009.81 1009.76 1009.77 1009.91 1010.24 1010.79 1011.56 1012.48 1013.49 1014.49 1015.40 1016.16 1016.74 1017.13 1017.38 1017.55 1017.70 1017.87 1018.09 1018.38 1018.70 1019.03 1019.33 1019.59 1019.80 1019.95 1020.08 1020.20 1020.36 1020.55 1020.78 1021.04 1021.29 1021.50 1021.65 1021.72 1021.69 1021.60 1021.46 1021.29
1009.70 1009.78 1009.82 1009.79 1009.75 1009.75 1009.86 1010.16 1010.69 1011.44 1012.37 1013.40 1014.43 1015.37 1016.15 1016.73 1017.13 1017.38 1017.54 1017.67 1017.83 1018.06 1018.35 1018.69 1019.04 1019.37 1019.64 1019.86 1020.01 1020.13 1020.24 1020.38 1020.57 1020.81 1021.09 1021.37 1021.63 1021.82 1021.93 1021.95 1021.88 1021.74 1021.57
1009.49 1009.68 1009.82 1009.87 1009.88 1009.90 1010.01 1010.27 1010.76 1011.46 1012.34 1013.32 1014.32 1015.23 1016.00 1016.58 1016.98 1017.22 1017.38 1017.52 1017.69 1017.93 1018.25 1018.61 1018.99 1019.35 1019.65 1019.87 1020.03 1020.15 1020.26 1020.39 1020.57 1020.81 1021.09 1021.39 1021.68 1021.90 1022.04 1022.08 1022.03 1021.90 1021.73
1009.28 1009.61 1009.88 1010.06 1010.16 1010.23 1010.34 1010.57 1010.99 1011.60 1012.39 1013.28 1014.19 1015.04 1015.76 1016.31 1016.69 1016.93 1017.11 1017.26 1017.46 1017.73 1018.07 1018.47 1018.89 1019.28 1019.60 1019.85 1020.02 1020.15 1020.25 1020.38 1020.55 1020.78 1021.06 1021.36 1021.65 1021.88 1022.04 1022.09 1022.05 1021.93 1021.75
1009.07 1009.56 1010.00 1010.32 1010.53 1010.67 1010.80 1011.01 1011.35 1011.86 1012.52 1013.28 1014.07 1014.82 1015.46 1015.96 1016.32 1016.56 1016.74 1016.93 1017.15 1017.46 1017.84 1018.27 1018.72 1019.14 1019.49 1019.77 1019.96 1020.09 1020.20 1020.33 1020.49 1020.71 1020.97 1021.26 1021.54 1021.77 1021.93 1021.99 1021.95 1021.84 1021.67
1008.86 1009.51 1010.11 1010.58 1010.91 1011.13 1011.30 1011.48 1011.76 1012.16 1012.69 1013.32 1013.97 1014.61 1015.16 1015.59 1015.91 1016.15 1016.34 1016.55 1016.80 1017.14 1017.55 1018.01 1018.48 1018.93 1019.31 1019.61 1019.82 1019.97 1020.10 1020.22 1020.38 1020.58 1020.83 1021.10 1021.36 1021.59 1021.74 1021.80 1021.78 1021.68 1021.52
1008.64 1009.42 1010.15 1010.75 1011.19 1011.49 1011.69 1011.88 1012.11 1012.43 1012.85 1013.35 1013.89 1014.41 1014.87 1015.24 1015.53 1015.75 1015.95 1016.16 1016.44 1016.78 1017.21 1017.68 1018.17 1018.63 1019.03 1019.35 1019.59 1019.76 1019.90 1020.04 1020.20 1020.39 1020.63 1020.88 1021.13 1021.34 1021.50 1021.57 1021.56 1021.49 1021.36
1008.39 1009.24 1010.05 1010.74 1011.25 1011.62 1011.87 1012.07 1012.29 1012.57 1012.92 1013.34 1013.78 1014.22 1014.61 1014.93 1015.18 1015.38 1015.56 1015.78 1016.05 1016.40 1016.82 1017.30 1017.78 1018.25 1018.66 1018.99 1019.25 1019.45 1019.60 1019.75 1019.92 1020.12 1020.34 1020.59 1020.83 1021.04 1021.20 1021.29 1021.32 1021.28 1021.20
1008.13 1008.99 1009.81 1010.51 1011.06 1011.46 1011.75 1011.99 1012.22 1012.49 1012.83 1013.21 1013.61 1014.00 1014.34 1014.62 1014.84 1015.02 1015.19 1015.39 1015.65 1015.98 1016.38 1016.84 1017.31 1017.77 1018.18 1018.52 1018.80 1019.02 1019.19 1019.36 1019.54 1019.74 1019.97 1020.21 1020.44 1020.66 1020.83 1020.95 1021.01 1021.02 1020.99
1007.89 1008.69 1009.45 1010.11 1010.63 1011.04 1011.35 1011.61 1011.88 1012.19 1012.54 1012.92 1013.32 1013.70 1014.02 1014.29 1014.49 1014.65 1014.80 1014.98 1015.21 1015.52 1015.89 1016.32 1016.77 1017.21 1017.61 1017.96 1018.24 1018.48 1018.67 1018.85 1019.03 1019.23 1019.46 1019.69 1019.93 1020.15 1020.34 1020.48 1020.58 1020.64 1020.67
1007.74 1008.41 1009.04 1009.60 1010.05 1010.41 1010.71 1011.00 1011.31 1011.66 1012.06 1012.49 1012.91 1013.30 1013.64 1013.90 1014.09 1014.23 1014.37 1014.52 1014.73 1015.00 1015.35 1015.74 1016.17 1016.59 1016.98 1017.32 1017.61 1017.84 1018.04 1018.22 1018.40 1018.59 1018.79 1019.02 1019.24 1019.46 1019.66 1019.83 1019.96 1020.06 1020.14
1007.75 1008.25 1008.71 1009.10 1009.43 1009.71 1009.98 1010.28 1010.62 1011.02 1011.48 1011.95 1012.42 1012.84 1013.19 1013.45 1013.64 1013.78 1013.90 1014.03 1014.22 1014.46 1014.78 1015.15 1015.55 1015.95 1016.32 1016.65 1016.92 1017.14 1017.32 1017.48 1017.63 1017.79 1017.97 1018.16 1018.36 1018.56 1018.76 1018.93 1019.09 1019.24 1019.36
1007.97 1008.27 1008.54 1008.75 1008.93 1009.11 1009.32 1009.60 1009.96 1010.39 1010.89 1011.40 1011.91 1012.35 1012.72 1012.99 1013.18 1013.31 1013.42 1013.54 1013.71 1013.94 1014.24 1014.59 1014.97 1015.34 1015.69 1016.00 1016.24 1016.43 1016.57 1016.68 1016.77 1016.88 1017.00 1017.14 1017.29 1017.46 1017.64 1017.81 1017.99 1018.15 1018.31
1008.40 1008.54 1008.62 1008.66 1008.69 1008.76 1008.90 1009.13 1009.48 1009.92 1010.43 1010.96 1011.48 1011.93 1012.30 1012.58 1012.76 1012.89 1013.00 1013.12 1013.28 1013.50 1013.79 1014.13 1014.49 1014.84 1015.16 1015.42 1015.62 1015.75 1015.83 1015.86 1015.88 1015.90 1015.94 1016.01 1016.10 1016.23 1016.37 1016.53 1016.71 1016.89 1017.08
1009.04 1009.05 1008.99 1008.90 1008.80 1008.77 1008.83 1009.01 1009.32 1009.74 1010.23 1010.75 1011.25 1011.69 1012.04 1012.30 1012.48 1012.61 1012.71 1012.84 1013.00 1013.23 1013.51 1013.83 1014.17 1014.50 1014.78 1014.99 1015.12 1015.18 1015.17 1015.12 1015.04 1014.96 1014.91 1014.89 1014.91 1014.98 1015.08 1015.22 1015.39 1015.58 1015.79
1009.82 1009.78 1009.64 1009.46 1009.28 1009.17 1009.17 1009.29 1009.55 1009.91 1010.36 1010.83 1011.28 1011.68 1012.01 1012.24 1012.41 1012.53 1012.64 1012.77 1012.94 1013.17 1013.45 1013.76 1014.08 1014.36 1014.60 1014.75 1014.81 1014.78 1014.67 1014.52 1014.34 1014.16 1014.01 1013.91 1013.86 1013.86 1013.93 1014.04 1014.20 1014.40 1014.61
1010.67 1010.64 1010.49 1010.29 1010.08 1009.93 1009.88 1009.94 1010.14 1010.44 1010.82 1011.22 1011.61 1011.95 1012.23 1012.43 1012.58 1012.70 1012.81 1012.95 1013.13 1013.36 1013.63 1013.93 1014.21 1014.45 1014.63 1014.71 1014.69 1014.58 1014.38 1014.14 1013.86 1013.60 1013.36 1013.18 1013.06 1013.02 1013.05 1013.13 1013.28 1013.46 1013.68
1011.53 1011.56 1011.46 1011.29 1011.10 1010.94 1010.87 1010.89 1011.03 1011.26 1011.55 1011.87 1012.18 1012.46 1012.68 1012.86 1012.99 1013.10 1013.22 1013.37 1013.55 1013.78 1014.04 1014.31 1014.55 1014.75 1014.86 1014.87 1014.78 1014.59 1014.32 1014.00 1013.66 1013.32 1013.02 1012.78 1012.61 1012.52 1012.51 1012.57 1012.69 1012.86 1013.06
1012.34 1012.47 1012.46 1012.35 1012.21 1012.08 1012.00 1012.00 1012.08 1012.24 1012.45 1012.69 1012.92 1013.14 1013.32 1013.47 1013.59 1013.71 1013.83 1013.99 1014.18 1014.40 1014.63 1014.86 1015.06 1015.20 1015.25 1015.20 1015.05 1014.80 1014.48 1014.11 1013.72 1013.34 1013.00 1012.73 1012.52 1012.39 1012.34 1012.36 1012.44 1012.57 1012.74
1013.09 1013.32 1013.41 1013.40 1013.32 1013.23 1013.16 1013.13 1013.17 1013.26 1013.40 1013.56 1013.73 1013.90 1014.05 1014.19 1014.31 1014.44 1014.58 1014.74 1014.93 1015.13 1015.34 1015.52 1015.67 1015.74 1015.74 1015.64 1015.44 1015.16 1014.81 1014.42 1014.01 1013.62 1013.26 1012.96 1012.72 1012.56 1012.46 1012.43 1012.45 1012.51 1012.61
1013.78 1014.11 1014.29 1014.35 1014.34 1014.28 1014.22 1014.18 1014.18 1014.21 1014.29 1014.40 1014.53 1014.66 1014.80 1014.94 1015.08 1015.23 1015.39 1015.56 1015.74 1015.92 1016.09 1016.23 1016.31 1016.33 1016.27 1016.13 1015.90 1015.61 1015.25 1014.87 1014.47 1014.08 1013.72 1013.40 1013.13 1012.91 1012.75 1012.65 1012.58 1012.55 1012.55
1014.44 1014.83 1015.07 1015.20 1015.23 1015.21 1015.15 1015.09 1015.05 1015.05 1015.08 1015.15 1015.25 1015.38 1015.52 1015.69 1015.86 1016.03 1016.22 1016.40 1016.57 1016.72 1016.84 1016.92 1016.95 1016.91 1016.80 1016.63 1016.39 1016.09 1015.75 1015.38 1015.00 1014.62 1014.26 1013.92 1013.61 1013.33 1013.10 1012.89 1012.72 1012.57 1012.46
1015.09 1015.50 1015.79 1015.95 1016.01 1015.99 1015.94 1015.86 1015.79 1015.75 1015.76 1015.81 1015.90 1016.04 1016.21 1016.41 1016.62 1016.83 1017.03 1017.22 1017.38 1017.50 1017.58 1017.60 1017.56 1017.47 1017.31 1017.11 1016.85 1016.56 1016.23 1015.89 1015.53 1015.16 1014.79 1014.43 1014.07 1013.72 1013.38 1013.06 1012.77 1012.49 1012.25
Thickness
5747 5744 5739 5737 5734 5731 5728 5727 5726 5725 5724 5722 5720 5719 5719 5720 5720 5721 5721 5721 5720 5719 5718 5716 5715 5714 5713 5712 5711 5709 5708 5706 5706 5704 5702 5702 5703 5704 5703 5703 5703 5703 5703
5743 5741 5737 5734 5733 5730 5728 5726 5725 5724 5724 5724 5722 5721 5719 5718 5719 5719 5718 5718 5718 5717 5717 5715 5714 5713 5712 5710 5710 5709 5706 5704 5704 5702 5698 5695 5697 5700 5701 5701 5702 5701 5701
5743 5740 5737 5734 5732 5730 5728 5727 5725 5724 5724 5723 5720 5718 5716 5715 5715 5715 5715 5716 5716 5715 5715 5714 5713 5712 5711 5710 5709 5708 5707 5703 5702 5702 5700 5694 5691 5693 5697 5698 5698 5699 5699
5745 5741 5738 5734 5732 5730 5729 5726 5724 5723 5723 5722 5720 5718 5716 5713 5714 5714 5714 5714 5714 5714 5714 5713 5712 5711 5710 5709 5708 5708 5707 5705 5702 5700 5700 5699 5697 5693 5691 5694 5696 5697 5697
5747 5743 5740 5737 5734 5731 5728 5726 5723 5722 5722 5721 5720 5719 5716 5715 5714 5713 5712 5712 5712 5712 5713 5712 5712 5711 5710 5709 5708 5707 5707 5706 5703 5701 5699 5697 5695 5695 5692 5690 5692 5694 5695
5748 5745 5742 5738 5734 5731 5728 5726 5723 5721 5721 5721 5720 5718 5716 5715 5713 5711 5710 5710 5710 5711 5711 5711 5711 5710 5709 5709 5708 5707 5706 5705 5704 5702 5701 5699 5697 5694 5692 5689 5688 5689 5691
5749 5745 5741 5738 5735 5731 5729 5726 5723 5721 5721 5720 5719 5719 5718 5717 5715 5713 5711 5710 5709 5710 5711 5711 5710 5710 5709 5708 5707 5706 5705 5704 5703 5702 5701 5700 5699 5697 5694 5691 5688 5687 5688
5751 5748 5744 5740 5737 5734 5731 5728 5725 5723 5722 5720 5719 5719 5718 5717 5716 5715 5714 5712 5712 5712 5712 5711 5710 5709 5709 5707 5706 5705 5704 5703 5702 5702 5700 5698 5697 5696 5695 5692 5688 5685 5685
5753 5750 5746 5742 5740 5737 5734 5731 5728 5725 5723 5722 5721 5719 5718 5717 5716 5716 5715 5714 5713 5713 5712 5710 5709 5708 5707 5706 5704 5703 5702 5701 5700 5699 5698 5697 5696 5694 5693 5692 5690 5686 5682
5753 5750 5747 5744 5741 5739 5736 5733 5730 5728 5725 5723 5721 5720 5719 5718 5718 5716 5715 5714 5713 5712 5711 5709 5708 5707 5706 5704 5702 5701 5700 5699 5698 5696 5695 5694 5693 5692 5691 5689 5688 5686 5683
5753 5751 5748 5746 5743 5740 5737 5733 5730 5728 5726 5724 5723 5721 5719 5718 5717 5716 5715 5715 5714 5712 5710 5708 5706 5705 5704 5703 5700 5699 5698 5696 5695 5694 5692 5691 5690 5688 5688 5686 5684 5682 5681
5755 5752 5750 5747 5743 5739 5737 5734 5732 5730 5728 5726 5724 5722 5720 5719 5717 5716 5716 5715 5714 5712 5710 5708 5706 5705 5703 5701 5699 5697 5696 5694 5693 5691 5689 5688 5687 5685 5684 5682 5681 5679 5677
5753 5751 5748 5746 5743 5740 5738 5735 5733 5731 5729 5727 5724 5722 5721 5719 5717 5717 5715 5714 5713 5711 5709 5706 5705 5703 5702 5699 5697 5695 5693 5692 5690 5689 5687 5685 5683 5681 5680 5678 5677 5676 5674
5751 5748 5746 5744 5743 5741 5739 5736 5734 5732 5730 5727 5724 5722 5721 5719 5718 5717 5715 5713 5711 5709 5707 5705 5704 5702 5700 5698 5695 5693 5690 5688 5687 5685 5684 5682 5680 5678 5677 5675 5673 5672 5670
5746 5745 5743 5742 5741 5739 5738 5736 5734 5732 5730 5726 5724 5723 5721 5719 5716 5714 5713 5711 5709 5707 5705 5703 5701 5699 5697 5695 5692 5690 5687 5685 5682 5681 5679 5678 5677 5675 5673 5671 5669 5667 5665
5741 5741 5741 5740 5738 5737 5736 5735 5733 5732 5729 5726 5723 5722 5720 5717 5714 5712 5710 5708 5706 5704 5701 5699 5697 5695 5694 5692 5688 5685 5683 5680 5677 5675 5673 5672 5671 5670 5669 5667 5665 5663 5661
5737 5736 5736 5736 5735 5735 5735 5734 5733 5730 5727 5724 5722 5719 5717 5715 5712 5710 5706 5703 5701 5699 5697 5695 5693 5691 5690 5688 5684 5681 5678 5675 5673 5670 5668 5666 5666 5664 5663 5661 5660 5658 5656
5731 5730 5730 5730 5731 5732 5732 5732 5730 5727 5724 5721 5719 5716 5713 5711 5709 5706 5703 5700 5697 5694 5693 5690 5689 5686 5685 5681 5678 5675 5672 5670 5667 5665 5662 5660 5659 5658 5656 5654 5652 5651 5650
5724 5723 5723 5723 5724 5726 5727 5726 5724 5721 5718 5715 5713 5712 5710 5707 5704 5701 5698 5695 5692 5690 5688 5685 5683 5680 5678 5675 5672 5668 5665 5663 5661 5658 5656 5654 5652 5651 5647 5645 5644 5643 5643
5715 5714 5714 5715 5715 5716 5718 5718 5714 5713 5710 5708 5707 5706 5704 5701 5698 5695 5692 5689 5686 5683 5681 5678 5675 5672 5669 5667 5664 5661 5658 5655 5653 5650 5648 5646 5644 5642 5638 5636 5635 5634 5634
5703 5703 5704 5704 5704 5706 5708 5706 5703 5701 5700 5699 5698 5696 5695 5693 5690 5686 5683 5680 5677 5673 5671 5667 5664 5661 5659 5657 5654 5651 5649 5647 5644 5641 5640 5638 5636 5633 5629 5627 5626 5625 5623
5691 5691 5692 5691 5692 5694 5695 5693 5689 5689 5689 5689 5687 5685 5684 5682 5680 5676 5673 5670 5667 5663 5659 5656 5653 5650 5648 5646 5643 5641 5638 5636 5633 5632 5630 5628 5625 5622 5619 5617 5616 5614 5611
5678 5679 5680 5679 5678 5680 5681 5679 5677 5677 5678 5676 5674 5671 5670 5668 5666 5663 5660 5657 5654 5651 5647 5644 5641 5639 5636 5634 5632 5629 5627 5624 5621 5620 5618 5615 5612 5610 5608 5606 5604 5601 5599
5665 5666 5667 5665 5664 5665 5666 5665 5664 5665 5665 5662 5659 5657 5656 5654 5651 5649 5646 5644 5641 5638 5635 5632 5629 5626 5623 5621 5618 5616 5613 5611 5608 5605 5603 5602 5600 5597 5595 5593 5591 5588 5586
5652 5652 5653 5651 5649 5650 5651 5651 5651 5652 5650 5647 5645 5642 5641 5639 5636 5633 5630 5628 5624 5623 5621 5618 5615 5612 5608 5605 5603 5601 5599 5596 5593 5590 5588 5586 5583 5582 5580 5578 5576 5574 5572
5640 5640 5639 5638 5636 5637 5637 5637 5637 5638 5636 5633 5630 5628 5626 5623 5621 5618 5615 5612 5609 5607 5605 5603 5600 5596 5592 5589 5587 5585 5582 5580 5577 5575 5572 5569 5567 5565 5563 5561 5560 5559 5557